Change the Weather History Date:

Thursday, December 20, 2012

  Actual Average Record
Temperature  
Mean Temperature 41 °F 24 °F  
Max Temperature 50 °F 31 °F 50 °F (2012)
Min Temperature 31 °F 16 °F -11 °F (2000)
Degree Days  
Heating Degree Days 24 41  
Month to date heating degree days 512 768  
Since 1 July heating degree days 2019 2182  
Cooling Degree Days 0 0  
Month to date cooling degree days 0 0  
Year to date cooling degree days 1007 655  
Moisture  
Dew Point 36 °F    
Average Humidity 96    
Maximum Humidity 100    
Minimum Humidity 92    
Precipitation  
Precipitation 0.74 in 0.06 in 0.74 in (2012)
Month to date precipitation 1.46 1.48  
Year to date precipitation 23.99 36.38  
Sea Level Pressure  
Sea Level Pressure 29.30 in    
Wind  
Wind Speed 22 mph (NNW)    
Max Wind Speed 38 mph    
Max Gust Speed 46 mph    
Visibility 4 miles    
Events Rain , Snow    
T = Trace of Precipitation, MM = Missing Value Source: NWS Daily Summary

Daily Weather History Graph

Daily Weather History Graph

Search for Another Location

Airport or City:

Trip Planner

Search our weather history database for the weather conditions in past years. The results will help you decide how hot, cold, wet, or windy it might be!

Date:

Astronomy

Dec. 20, 2012 Rise Set
Actual Time 7:17 AM CST 4:26 PM CST
Civil Twilight 6:45 AM CST 4:57 PM CST
Nautical Twilight 6:10 AM CST 5:32 PM CST
Astronomical Twilight 5:36 AM CST 6:06 PM CST
Moon 11:48 AM CST (12/20) No Moon Set
Length of Visible Light 10h 11m
Length of Day
9h 08m
First Quarter, 55% of the Moon is Illuminated
Dec 20
First Quarter
Dec 28
Full
Jan 4
Last Quarter
Jan 11
New
Jan 18
First Quarter

Hourly Weather History & Observations

Time (CST) Temp. Windchill Dew Point Humidity Pressure Visibility Wind Dir Wind Speed Gust Speed Precip Events Conditions
12:52 AM 39.0 °F 29.3 °F 37.0 °F 93% 29.72 in 3.0 mi East 19.6 mph 27.6 mph 0.11 in Rain Rain
12:56 AM 39.2 °F 29.8 °F 37.4 °F 93% 29.69 in 2.5 mi East 18.4 mph - 0.02 in Rain Rain
1:08 AM 39.2 °F 29.3 °F 37.4 °F 93% 29.66 in 2.5 mi East 20.7 mph 32.2 mph 0.05 in Rain Rain
1:21 AM 39.2 °F 28.5 °F 37.4 °F 93% 29.64 in 3.0 mi East 24.2 mph 32.2 mph 0.07 in Rain Light Rain
1:47 AM 39.2 °F 28.5 °F 37.4 °F 93% 29.62 in 4.0 mi East 24.2 mph 32.2 mph 0.09 in Rain Light Rain
1:52 AM 39.9 °F 29.5 °F 37.9 °F 93% 29.63 in 4.0 mi East 24.2 mph 32.2 mph 0.10 in Rain Rain
2:52 AM 39.9 °F 30.2 °F 39.0 °F 97% 29.59 in 5.0 mi East 20.7 mph 27.6 mph 0.02 in Rain Light Rain
3:40 AM 41.0 °F 33.9 °F 39.2 °F 93% 29.54 in 3.0 mi East 12.7 mph 23.0 mph 0.05 in Rain Light Rain
4:52 AM 41.0 °F 32.5 °F 39.9 °F 96% 29.46 in 3.0 mi East 17.3 mph - 0.12 in Rain Light Rain
5:09 AM 41.0 °F 32.8 °F 39.2 °F 93% 29.41 in 3.0 mi East 16.1 mph - 0.05 in Rain Rain
5:27 AM 42.8 °F 35.4 °F 41.0 °F 93% 29.42 in 3.0 mi East 15.0 mph - 0.08 in Rain Rain
5:52 AM 42.1 °F 34.2 °F 41.0 °F 96% 29.39 in 3.0 mi East 16.1 mph - 0.15 in Rain Rain
6:52 AM 44.1 °F 36.8 °F 43.0 °F 96% 29.30 in 7.0 mi ESE 16.1 mph 25.3 mph 0.05 in   Overcast
7:52 AM 45.0 °F 38.9 °F 44.1 °F 97% 29.29 in 6.0 mi ESE 12.7 mph - N/A   Overcast
8:52 AM 46.0 °F 39.3 °F 45.0 °F 96% 29.25 in 5.0 mi ESE 16.1 mph - N/A   Overcast
9:52 AM 46.0 °F 40.6 °F 45.0 °F 96% 29.20 in 6.0 mi ESE 11.5 mph 21.9 mph 0.01 in   Overcast
10:52 AM 46.0 °F 39.6 °F 45.0 °F 96% 29.13 in 5.0 mi ESE 15.0 mph - 0.01 in   Overcast
11:20 AM 46.4 °F 40.1 °F 46.4 °F 100% 29.09 in 1.8 mi ESE 15.0 mph - N/A   Overcast
11:52 AM 46.9 °F - 46.0 °F 97% 29.07 in 1.8 mi ESE 9.2 mph - N/A   Overcast
12:06 PM 46.4 °F 42.4 °F 46.4 °F 100% 29.05 in 1.8 mi SE 8.1 mph - N/A   Overcast
12:33 PM 48.2 °F - 46.4 °F 93% 29.03 in 3.0 mi South 9.2 mph - 0.02 in Rain Light Rain
12:52 PM 48.9 °F - 48.0 °F 97% 29.03 in 6.0 mi South 8.1 mph - 0.02 in   Overcast
1:09 PM 48.2 °F - 46.4 °F 93% 29.01 in 7.0 mi SW 12.7 mph 17.3 mph N/A   Overcast
1:21 PM 50.0 °F - 46.4 °F 87% 29.02 in 8.0 mi SW 10.4 mph - 0.00 in Rain Light Rain
1:52 PM 46.9 °F - 44.1 °F 90% 29.04 in 10.0 mi SSW 13.8 mph 25.3 mph 0.01 in Rain Light Rain
2:07 PM 46.4 °F 39.8 °F 44.6 °F 93% 29.04 in 4.0 mi SW 16.1 mph - 0.01 in Rain Light Rain
2:52 PM 43.0 °F 35.7 °F 41.0 °F 93% 29.06 in 9.0 mi SSW 15.0 mph 21.9 mph 0.04 in Rain Light Rain
3:06 PM 42.8 °F 38.0 °F 41.0 °F 93% 29.05 in 10.0 mi NNW 8.1 mph - 0.00 in Rain Light Rain
3:15 PM 42.8 °F 34.0 °F 39.2 °F 87% 29.06 in 10.0 mi NNW 20.7 mph 25.3 mph 0.00 in Rain Light Rain
3:27 PM 39.2 °F 29.0 °F 37.4 °F 93% 29.06 in 10.0 mi NNW 21.9 mph 29.9 mph 0.00 in Rain Light Rain
3:52 PM 36.0 °F 23.2 °F 34.0 °F 93% 29.10 in 10.0 mi NNW 28.8 mph 36.8 mph 0.00 in Rain Light Rain
4:17 PM 35.6 °F 22.5 °F 33.8 °F 93% 29.11 in 10.0 mi NNW 29.9 mph 39.1 mph 0.00 in   Overcast
4:32 PM 33.8 °F 20.5 °F 32.0 °F 93% 29.12 in 4.0 mi NNW 27.6 mph 38.0 mph 0.01 in Snow Light Snow
4:45 PM 33.8 °F 20.1 °F 32.0 °F 93% 29.14 in 1.8 mi NNW 29.9 mph 39.1 mph 0.01 in Snow Light Snow
4:52 PM 33.1 °F 19.1 °F 32.0 °F 96% 29.16 in 1.5 mi NNW 29.9 mph 40.3 mph 0.01 in Snow Light Snow
5:13 PM 33.8 °F 19.4 °F 32.0 °F 93% 29.17 in 1.0 mi NNW 33.4 mph 43.7 mph 0.01 in Snow Light Snow
5:52 PM 33.1 °F 19.1 °F 32.0 °F 96% 29.24 in 2.0 mi NW 29.9 mph 40.3 mph 0.03 in Snow Light Snow
5:59 PM 33.8 °F 20.3 °F 30.2 °F 87% 29.23 in 2.5 mi NW 28.8 mph 42.6 mph 0.01 in Snow Light Snow
6:04 PM 33.8 °F 19.6 °F 30.2 °F 87% 29.23 in 4.0 mi NW 32.2 mph 42.6 mph 0.01 in Snow Light Snow
6:11 PM 33.8 °F 19.6 °F 30.2 °F 87% 29.24 in 7.0 mi NW 32.2 mph 44.9 mph 0.01 in Snow Light Snow
6:25 PM 33.8 °F 20.8 °F 30.2 °F 87% 29.26 in 10.0 mi NW 26.5 mph 44.9 mph 0.01 in   Overcast
6:52 PM 33.1 °F 18.4 °F 30.0 °F 89% 29.30 in 10.0 mi NW 33.4 mph 46.0 mph 0.01 in   Overcast
7:46 PM 33.8 °F 19.6 °F 30.2 °F 87% 29.33 in 2.5 mi NW 32.2 mph 40.3 mph 0.00 in Snow Light Snow
7:47 PM 33.8 °F 19.2 °F 30.2 °F 87% 29.33 in 2.5 mi NW 34.5 mph 40.3 mph 0.00 in Snow Light Snow
7:52 PM 33.1 °F 18.7 °F 30.9 °F 92% 29.34 in 3.0 mi NW 32.2 mph 40.3 mph 0.00 in Snow Light Snow
8:00 PM 33.8 °F 19.6 °F 30.2 °F 87% 29.34 in 2.0 mi NW 32.2 mph 44.9 mph 0.00 in Snow Light Snow
8:03 PM 33.8 °F 20.3 °F 30.2 °F 87% 29.34 in 1.8 mi NW 28.8 mph 44.9 mph 0.00 in Snow Light Snow
8:16 PM 32.0 °F 17.4 °F 30.2 °F 93% 29.35 in 1.8 mi NW 31.1 mph 39.1 mph 0.00 in Snow Light Snow
8:20 PM 32.0 °F 17.6 °F 30.2 °F 93% 29.35 in 2.0 mi WNW 29.9 mph 39.1 mph 0.00 in Snow Light Snow
8:41 PM 32.0 °F 17.4 °F 30.2 °F 93% 29.36 in 1.8 mi WNW 31.1 mph 41.4 mph 0.00 in Snow Light Snow
8:52 PM 32.0 °F 16.7 °F 30.0 °F 92% 29.39 in 1.0 mi NW 34.5 mph 43.7 mph 0.00 in Snow Light Snow
9:18 PM 32.0 °F 18.1 °F 30.2 °F 93% 29.39 in 2.5 mi WNW 27.6 mph 39.1 mph 0.00 in Snow Light Snow
9:25 PM 30.2 °F 14.5 °F 30.2 °F 100% 29.40 in 3.0 mi WNW 33.4 mph 42.6 mph 0.00 in Snow Light Snow
9:52 PM 30.9 °F 15.5 °F 28.9 °F 92% 29.43 in 4.0 mi WNW 33.4 mph 42.6 mph 0.00 in Snow Light Snow
9:59 PM 30.2 °F 14.5 °F 28.4 °F 93% 29.42 in 4.0 mi WNW 33.4 mph 41.4 mph 0.00 in Snow Light Snow
10:15 PM 30.2 °F 14.5 °F 28.4 °F 93% 29.44 in 2.5 mi WNW 33.4 mph 43.7 mph 0.00 in Snow Light Snow
10:23 PM 30.2 °F 14.5 °F 28.4 °F 93% 29.44 in 3.0 mi WNW 33.4 mph 43.7 mph 0.00 in Snow Light Snow
10:52 PM 30.9 °F 15.7 °F 28.9 °F 92% 29.48 in 3.0 mi WNW 32.2 mph 41.4 mph 0.00 in Snow Light Snow
11:22 PM 30.2 °F 14.5 °F 28.4 °F 93% 29.49 in 2.5 mi WNW 33.4 mph 42.6 mph 0.00 in Snow Light Snow
11:44 PM 30.2 °F 14.9 °F 28.4 °F 93% 29.50 in 3.0 mi WNW 31.1 mph 42.6 mph 0.00 in Snow Light Snow
11:52 PM 30.9 °F 16.2 °F 28.0 °F 89% 29.52 in 4.0 mi WNW 29.9 mph 46.0 mph 0.00 in Snow Light Snow